TimeEDT,TemperatureF,Dew PointF,Humidity,Sea Level PressureIn,VisibilityMPH,Wind Direction,Wind SpeedMPH,Gust SpeedMPH,PrecipitationIn,Events,Conditions,WindDirDegrees,DateUTC
12:12 AM,51.8,48.2,88,30.05,2.5,SW,3.5,-,0.06,Rain,Rain,220,2011-10-04 04:12:00
12:20 AM,51.8,48.2,88,30.05,5.0,Calm,Calm,-,0.07,Rain,Light Rain,0,2011-10-04 04:20:00
12:53 AM,50.0,48.0,93,30.03,10.0,Calm,Calm,-,0.08,Rain,Light Rain,0,2011-10-04 04:53:00
1:21 AM,50.0,48.2,94,30.04,6.0,Calm,Calm,-,0.03,Rain,Light Rain,0,2011-10-04 05:21:00
1:53 AM,50.0,48.9,96,30.03,9.0,Calm,Calm,-,0.07,Rain,Light Rain,0,2011-10-04 05:53:00
2:53 AM,51.1,48.9,92,30.00,9.0,West,3.5,-,0.01,Rain,Light Rain,270,2011-10-04 06:53:00
3:53 AM,51.1,48.9,92,30.00,4.0,Calm,Calm,-,0.00,Rain,Light Rain,0,2011-10-04 07:53:00
4:01 AM,51.8,48.2,88,30.00,4.0,Calm,Calm,-,0.01,Rain,Light Rain,0,2011-10-04 08:01:00
4:10 AM,51.8,48.2,88,30.00,4.0,Calm,Calm,-,0.01,Rain,Light Rain,0,2011-10-04 08:10:00
4:38 AM,51.8,48.2,88,30.00,4.0,Calm,Calm,-,0.02,Rain,Light Rain,0,2011-10-04 08:38:00
4:53 AM,51.1,48.9,92,30.00,6.0,Calm,Calm,-,0.03,Rain,Light Rain,0,2011-10-04 08:53:00
5:53 AM,51.1,48.9,92,30.00,8.0,Calm,Calm,-,0.01,,Overcast,0,2011-10-04 09:53:00
6:15 AM,51.8,48.2,88,30.01,10.0,Calm,Calm,-,N/A,,Overcast,0,2011-10-04 10:15:00
6:53 AM,51.8,48.2,88,30.01,5.0,WNW,3.5,-,N/A,Rain,Light Rain,300,2011-10-04 10:53:00
7:19 AM,51.8,48.2,88,30.02,2.5,WNW,4.6,-,0.02,Rain,Light Rain,300,2011-10-04 11:19:00
7:39 AM,51.8,48.2,88,30.02,4.0,WNW,3.5,-,0.03,Rain,Light Rain,290,2011-10-04 11:39:00
7:53 AM,51.1,50.0,96,30.02,2.0,Calm,Calm,-,0.03,,Overcast,0,2011-10-04 11:53:00
8:00 AM,51.8,50.0,94,30.03,3.0,Calm,Calm,-,N/A,,Overcast,0,2011-10-04 12:00:00
8:25 AM,51.8,50.0,94,30.03,3.0,Calm,Calm,-,N/A,,Overcast,0,2011-10-04 12:25:00
8:53 AM,53.1,51.1,93,30.02,3.0,Calm,Calm,-,N/A,,Overcast,0,2011-10-04 12:53:00
9:12 AM,53.6,50.0,88,30.03,10.0,NNW,3.5,-,0.01,Rain,Light Rain,330,2011-10-04 13:12:00
9:53 AM,55.0,51.1,86,30.03,10.0,NNW,5.8,-,0.01,Rain,Light Rain,330,2011-10-04 13:53:00
10:53 AM,55.9,52.0,87,30.02,10.0,NNW,5.8,-,0.00,,Overcast,340,2011-10-04 14:53:00
11:33 AM,57.2,51.8,82,30.02,10.0,NNW,5.8,-,N/A,,Overcast,330,2011-10-04 15:33:00
11:53 AM,57.9,52.0,81,30.01,10.0,NNW,8.1,-,N/A,,Overcast,340,2011-10-04 15:53:00
12:06 PM,57.2,51.8,82,30.01,10.0,NNW,6.9,-,N/A,,Overcast,340,2011-10-04 16:06:00
12:53 PM,62.1,52.0,70,29.99,10.0,North,5.8,-,N/A,,Overcast,360,2011-10-04 16:53:00
1:53 PM,62.1,50.0,65,29.97,10.0,NNW,9.2,-,N/A,,Scattered Clouds,330,2011-10-04 17:53:00
2:53 PM,63.0,51.1,65,29.98,10.0,NNE,5.8,-,N/A,,Overcast,20,2011-10-04 18:53:00
3:53 PM,62.1,51.1,67,29.97,10.0,North,3.5,-,0.00,,Overcast,10,2011-10-04 19:53:00
4:53 PM,64.0,51.1,63,29.97,10.0,Calm,Calm,-,N/A,,Overcast,0,2011-10-04 20:53:00
5:53 PM,62.1,52.0,70,29.97,10.0,Calm,Calm,-,N/A,,Mostly Cloudy,0,2011-10-04 21:53:00
6:53 PM,60.1,54.0,80,29.98,10.0,Calm,Calm,-,N/A,,Overcast,0,2011-10-04 22:53:00
7:53 PM,60.8,53.6,77,29.99,10.0,Calm,Calm,-,N/A,,Overcast,0,2011-10-04 23:53:00
8:53 PM,57.9,55.0,90,29.99,10.0,Calm,Calm,-,N/A,,Overcast,0,2011-10-05 00:53:00
9:53 PM,57.9,55.0,90,30.01,10.0,Calm,Calm,-,0.00,,Overcast,0,2011-10-05 01:53:00
10:53 PM,57.9,55.0,90,30.00,10.0,Calm,Calm,-,N/A,,Overcast,0,2011-10-05 02:53:00
11:53 PM,57.0,55.0,93,30.01,10.0,Calm,Calm,-,N/A,,Overcast,0,2011-10-05 03:53:00